Location: Mount Kobau Star Party
(49.1167°N, 119.7333°W)
Time: 03:25:50
(UTC-07:00)

BlueWalker 3 - Pass Details

Date: 24 February 2024
Orbit: 485 x 495 km, 53.2° (Epoch: 22 April)

Event Time Altitude Azimuth Distance (km) Brightness Sun altitude
Rises 19:55:44 0° 288° (WNW) 2,558 7.0 -23.8°
Reaches altitude 10° 19:57:58 10° 294° (WNW) 1,674 5.6 -24.2°
Enters shadow 20:00:52 41° 332° (NNW) 722 2.9 -24.7°
